Fort Worth Alliance, TX

1:59 AM CDT on June 25, 2017 (GMT -0500)
Fort Worth Alliance

Weather History for KAFW - December, 2012

Change the Weather History Date:

Thursday, December 20, 2012

  Actual Average Record
Temperature  
Mean Temperature 39 °F -  
Max Temperature 50 °F 53 °F 80 °F (2010)
Min Temperature 28 °F 31 °F 19 °F (1996)
Degree Days  
Heating Degree Days 26    
Moisture  
Dew Point 12 °F    
Average Humidity 35    
Maximum Humidity 55    
Minimum Humidity 12    
Precipitation  
Precipitation 0.00 in - - ()
Sea Level Pressure  
Sea Level Pressure 30.27 in    
Wind  
Wind Speed 19 mph (NW)    
Max Wind Speed 26 mph    
Max Gust Speed 43 mph    
Visibility 10 miles    
Events      
Averages and records for this station are not official NWS values.
T = Trace of Precipitation, MM = Missing Value Source: NWS Daily Summary

Daily Weather History Graph

Daily Weather History Graph

Search for Another Location

Airport or City:

Trip Planner

Search our weather history database for the weather conditions in past years. The results will help you decide how hot, cold, wet, or windy it might be!

Date:

Astronomy

Dec. 20, 2012 Rise Set
Actual Time 7:27 AM CST 5:26 PM CST
Civil Twilight 7:00 AM CST 5:53 PM CST
Nautical Twilight 6:29 AM CST 6:24 PM CST
Astronomical Twilight 5:59 AM CST 6:54 PM CST
Moon 12:30 PM CST (12/20) 12:32 AM CST (12/20)
Length of Visible Light 10h 53m
Length of Day
9h 58m
First Quarter, 55% of the Moon is Illuminated
Dec 20
First Quarter
Dec 28
Full
Jan 4
Last Quarter
Jan 11
New
Jan 18
First Quarter

Hourly Weather History & Observations

Time (CST) Temp. Windchill Dew Point Humidity Pressure Visibility Wind Dir Wind Speed Gust Speed Precip Events Conditions
12:47 AM 42.8 °F 32.9 °F 24.8 °F 49% 29.92 in 9.0 mi WNW 26.5 mph 38.0 mph N/A   Scattered Clouds
12:53 AM 43.0 °F 34.5 °F 24.1 °F 47% 29.92 in 9.0 mi WNW 19.6 mph 38.0 mph N/A   Scattered Clouds
1:53 AM 39.9 °F 29.0 °F 24.1 °F 53% 29.98 in 10.0 mi WNW 26.5 mph 42.6 mph N/A   Clear
2:53 AM 39.0 °F 29.0 °F 21.9 °F 50% 30.04 in 10.0 mi WNW 20.7 mph 41.4 mph N/A   Clear
3:53 AM 39.0 °F 28.5 °F 21.9 °F 50% 30.09 in 10.0 mi NW 23.0 mph 35.7 mph N/A   Clear
4:53 AM 39.0 °F 29.0 °F 21.9 °F 50% 30.13 in 10.0 mi NW 20.7 mph 34.5 mph N/A   Clear
5:53 AM 37.9 °F 27.6 °F 23.0 °F 55% 30.15 in 10.0 mi NW 20.7 mph 29.9 mph N/A   Clear
6:53 AM 37.0 °F 27.0 °F 21.9 °F 54% 30.20 in 10.0 mi NW 18.4 mph 31.1 mph N/A   Clear
7:53 AM 37.9 °F 28.9 °F 19.9 °F 48% 30.23 in 10.0 mi NW 16.1 mph 28.8 mph N/A   Clear
8:53 AM 39.9 °F 30.2 °F 12.9 °F 33% 30.29 in 10.0 mi NW 20.7 mph 31.1 mph N/A   Clear
9:53 AM 43.0 °F 33.8 °F 10.9 °F 27% 30.32 in 10.0 mi NNW 23.0 mph 31.1 mph N/A   Clear
10:53 AM 45.0 °F 36.0 °F 10.0 °F 24% 30.34 in 10.0 mi NNW 25.3 mph 35.7 mph N/A   Clear
11:53 AM 46.9 °F - 9.0 °F 21% 30.35 in 10.0 mi NW 24.2 mph 29.9 mph N/A   Clear
12:53 PM 48.9 °F - 7.0 °F 18% 30.35 in 10.0 mi NW 17.3 mph 29.9 mph N/A   Clear
2:53 PM 50.0 °F - 1.9 °F 14% 30.35 in 10.0 mi WNW 18.4 mph 27.6 mph N/A   Clear
3:53 PM 50.0 °F - -0.9 °F 12% 30.37 in 10.0 mi NW 20.7 mph 28.8 mph N/A   Clear
4:53 PM 48.9 °F - -0.9 °F 13% 30.38 in 10.0 mi NNW 17.3 mph - N/A   Clear
5:53 PM 44.1 °F 40.8 °F 1.9 °F 17% 30.40 in 10.0 mi NW 5.8 mph - N/A   Clear
6:53 PM 39.9 °F 37.8 °F 3.0 °F 21% 30.41 in 10.0 mi West 3.5 mph - N/A   Clear
7:53 PM 30.9 °F 27.5 °F 8.1 °F 38% 30.42 in 10.0 mi West 3.5 mph - N/A   Clear
8:53 PM 34.0 °F 29.8 °F 8.1 °F 34% 30.42 in 10.0 mi West 4.6 mph - N/A   Clear
9:53 PM 28.9 °F 25.2 °F 10.0 °F 45% 30.43 in 10.0 mi West 3.5 mph - N/A   Clear
10:53 PM 33.1 °F 28.7 °F 7.0 °F 34% 30.44 in 10.0 mi West 4.6 mph - N/A   Clear
11:53 PM 32.0 °F 26.4 °F 8.1 °F 37% 30.45 in 10.0 mi West 5.8 mph - N/A   Clear